GW1364 Weather Reports


time (UTC)temp
C
wind
direction
speed
KPH
gust
KPH
rain 1hr
cm
rain 24hr
cm
rain mn
cm
humidity
%
barometer
mb
20260510093406 6 106 0.0 0.0 0.00 0.00 0.00 91 1014.1
20260510092903 6 106 0.0 0.0 0.00 0.00 0.00 91 1014.1
20260510092400 6 116 0.0 0.0 0.00 0.00 0.00 90 1014.0
20260510091855 6 118 0.0 0.0 0.00 0.00 0.00 90 1014.0
20260510091352 6 106 0.0 0.0 0.00 0.00 0.00 89 1013.9
20260510090849 7 95 0.0 0.0 0.00 0.00 0.00 88 1013.8
20260510090345 6 126 0.0 0.0 0.00 0.00 0.00 89 1013.9
20260510085841 6 110 1.6 1.6 0.00 0.00 0.00 88 1013.9
20260510085336 6 90 0.0 1.6 0.00 0.00 0.00 86 1013.8
20260510084832 7 96 0.0 0.0 0.00 0.00 0.00 84 1013.7
20260510084329 7 126 0.0 1.6 0.00 0.00 0.00 87 1013.5
20260510083826 6 119 3.2 3.2 0.00 0.00 0.00 90 1013.7
20260510083323 6 99 1.6 3.2 0.00 0.00 0.00 83 1013.7
20260510082818 7 125 1.6 1.6 0.00 0.00 0.00 89 1013.8
20260510082316 6 104 0.0 0.0 0.00 0.00 0.00 87 1013.8
20260510081814 6 119 1.6 1.6 0.00 0.00 0.00 85 1014.0
20260510081310 7 119 1.6 3.2 0.00 0.00 0.00 86 1013.8
20260510080801 7 119 0.0 0.0 0.00 0.00 0.00 85 1013.8
20260510080256 7 85 1.6 1.6 0.00 0.00 0.00 82 1013.7
20260510075753 8 114 0.0 0.0 0.00 0.00 0.00 83 1013.7
20260510075251 8 100 0.0 0.0 0.00 0.00 0.00 81 1013.7
20260510074748 8 121 0.0 0.0 0.00 0.00 0.00 83 1013.4
20260510074244 7 108 0.0 0.0 0.00 0.00 0.00 84 1013.6
20260510073740 7 103 0.0 0.0 0.00 0.00 0.00 83 1013.6
20260510073236 7 100 0.0 1.6 0.00 0.00 0.00 83 1013.2
20260510072732 8 95 1.6 1.6 0.00 0.00 0.00 78 1013.4
20260510072229 8 104 0.0 0.0 0.00 0.00 0.00 79 1013.5
20260510071725 8 102 0.0 0.0 0.00 0.00 0.00 80 1013.4
20260510071222 8 105 0.0 0.0 0.00 0.00 0.00 79 1013.4
20260510070721 8 121 0.0 0.0 0.00 0.00 0.00 78 1013.5
20260510070217 9 111 0.0 0.0 0.00 0.00 0.00 78 1013.3
20260510065712 9 130 0.0 1.6 0.00 0.00 0.00 78 1013.2
20260510065209 9 114 0.0 0.0 0.00 0.00 0.00 78 1013.3
20260510064705 9 100 0.0 0.0 0.00 0.00 0.00 77 1013.4
20260510064203 9 109 0.0 0.0 0.00 0.00 0.00 76 1013.3
20260510063700 10 108 0.0 0.0 0.00 0.00 0.00 76 1013.2
20260510063156 10 115 0.0 0.0 0.00 0.00 0.00 75 1013.1
20260510062652 10 116 0.0 0.0 0.00 0.00 0.00 75 1013.1
20260510062148 10 118 0.0 0.0 0.00 0.00 0.00 75 1013.2
20260510061643 10 111 0.0 0.0 0.00 0.00 0.00 74 1013.1
20260510061141 10 104 0.0 0.0 0.00 0.00 0.00 74 1013.1
20260510060637 10 99 0.0 1.6 0.00 0.00 0.00 73 1013.1
20260510060134 10 82 1.6 1.6 0.00 0.00 0.00 72 1013.2
20260510055630 10 109 0.0 0.0 0.00 0.00 0.00 71 1013.2
20260510055129 11 112 0.0 0.0 0.00 0.00 0.00 69 1013.2
20260510054624 12 98 0.0 1.6 0.00 0.00 0.00 64 1013.2
20260510054119 13 88 1.6 1.6 0.00 0.00 0.00 63 1013.2
20260510053619 13 170 1.6 3.2 0.00 0.00 0.00 61 1013.1
20260510053115 12 211 6.4 6.4 0.00 0.00 0.00 65 1013.2
20260510052611 11 112 3.2 4.8 0.00 0.00 0.00 68 1013.3
20260510052108 10 124 1.6 1.6 0.00 0.00 0.00 73 1013.1
20260510051603 10 121 0.0 0.0 0.00 0.00 0.00 73 1013.1
20260510051100 10 124 0.0 0.0 0.00 0.00 0.00 72 1013.2
20260510050557 11 119 1.6 1.6 0.00 0.00 0.00 69 1013.2
20260510050054 12 117 0.0 1.6 0.00 0.00 0.00 66 1013.1
20260510045552 13 105 0.0 0.0 0.00 0.00 0.00 62 1013.2
20260510045047 14 180 3.2 3.2 0.00 0.00 0.00 60 1013.3
20260510044539 15 201 3.2 4.8 0.00 0.00 0.00 58 1013.3
20260510044037 14 133 0.0 1.6 0.00 0.00 0.00 58 1013.4
20260510043532 14 136 3.2 3.2 0.00 0.00 0.00 59 1013.4
20260510043027 13 124 1.6 1.6 0.00 0.00 0.00 61 1013.4
20260510042522 13 107 0.0 1.6 0.00 0.00 0.00 63 1013.5
20260510042021 12 122 1.6 1.6 0.00 0.00 0.00 63 1013.3
20260510041519 12 130 1.6 1.6 0.00 0.00 0.00 64 1013.3
20260510041017 11 171 1.6 1.6 0.00 0.00 0.00 67 1013.5
20260510040513 11 125 0.0 0.0 0.00 0.00 0.00 68 1013.5
20260510040009 12 130 0.0 0.0 0.00 0.00 0.00 68 1013.4
20260510035506 12 141 1.6 1.6 0.00 0.00 0.00 68 1013.4
20260510035004 12 127 0.0 0.0 0.00 0.00 0.00 68 1013.6
20260510034504 12 202 3.2 3.2 0.00 0.00 0.00 68 1013.5
20260510033959 12 160 1.6 3.2 0.00 0.00 0.00 68 1013.2
20260510033455 12 134 0.0 1.6 0.00 0.00 0.00 67 1013.2
20260510032953 12 136 1.6 3.2 0.00 0.00 0.00 68 1013.4
20260510032450 11 146 1.6 1.6 0.00 0.00 0.00 71 1013.5
20260510031945 11 118 0.0 0.0 0.00 0.00 0.00 71 1013.5
20260510031441 11 122 0.0 0.0 0.00 0.00 0.00 70 1013.3
20260510030936 12 120 0.0 0.0 0.00 0.00 0.00 68 1013.3
20260510030432 12 216 1.6 1.6 0.00 0.00 0.00 67 1013.4
20260510025930 12 273 3.2 3.2 0.00 0.00 0.00 67 1013.1
20260510025427 13 154 1.6 1.6 0.00 0.00 0.00 65 1013.1
20260510024925 13 138 0.0 1.6 0.00 0.00 0.00 65 1013.1
20260510024420 13 175 1.6 1.6 0.00 0.00 0.00 66 1013.2
20260510023917 13 124 0.0 1.6 0.00 0.00 0.00 66 1013.0
20260510023413 13 170 1.6 1.6 0.00 0.00 0.00 65 1012.8
20260510022910 12 122 0.0 0.0 0.00 0.00 0.00 71 1012.9
20260510022410 12 131 0.0 0.0 0.00 0.00 0.00 72 1012.8
20260510021908 12 106 0.0 0.0 0.00 0.00 0.00 70 1012.8
20260510021407 12 123 0.0 0.0 0.00 0.00 0.00 70 1012.6
20260510020903 12 111 0.0 0.0 0.00 0.00 0.00 71 1012.5
20260510020358 13 116 0.0 0.0 0.00 0.00 0.00 71 1012.3
20260510015854 13 137 0.0 1.6 0.00 0.00 0.00 70 1012.2
20260510015350 13 121 0.0 1.6 0.00 0.00 0.00 70 1012.1
20260510014846 13 105 0.0 0.0 0.00 0.00 0.00 71 1012.1
20260510014343 13 97 0.0 0.0 0.00 0.00 0.00 70 1012.0
20260510013839 15 101 0.0 1.6 0.00 0.00 0.00 65 1012.0
20260510013335 15 118 0.0 1.6 0.00 0.00 0.00 63 1011.8
20260510012829 15 118 0.0 0.0 0.00 0.00 0.00 63 1011.7
20260510012324 15 126 0.0 0.0 0.00 0.00 0.00 65 1011.6
20260510011819 16 137 1.6 1.6 0.00 0.00 0.00 61 1011.5
20260510011315 16 220 4.8 6.4 0.00 0.00 0.00 58 1011.3
20260510010811 16 150 3.2 4.8 0.00 0.00 0.00 60 1011.4
20260510010309 16 126 1.6 1.6 0.00 0.00 0.00 61 1011.4
20260510005805 16 215 3.2 4.8 0.00 0.00 0.00 61 1011.5
20260510005301 16 166 1.6 3.2 0.00 0.00 0.00 60 1011.3
20260510004759 17 149 1.6 1.6 0.00 0.00 0.00 59 1011.3
20260510004256 17 179 6.4 9.7 0.00 0.00 0.00 58 1011.0
20260510003754 17 209 6.4 9.7 0.00 0.00 0.00 57 1011.1
20260510003251 17 168 4.8 4.8 0.00 0.00 0.00 59 1010.8
20260510002749 17 191 3.2 3.2 0.00 0.00 0.00 59 1010.9
20260510002247 17 232 6.4 6.4 0.00 0.00 0.00 59 1010.9
20260510001743 17 117 1.6 1.6 0.00 0.00 0.00 59 1010.8
20260510001242 17 204 1.6 3.2 0.00 0.00 0.00 59 1010.7
20260510000737 18 127 3.2 3.2 0.00 0.00 0.00 58 1010.6
20260510000235 18 110 1.6 1.6 0.00 0.00 0.00 57 1010.4
20260509235732 18 190 3.2 3.2 0.00 0.00 0.00 57 1010.3
20260509235228 18 176 1.6 3.2 0.00 0.00 0.00 55 1010.3
20260509234724 19 206 6.4 6.4 0.00 0.00 0.00 53 1010.4
20260509234221 20 193 3.2 3.2 0.00 0.00 0.00 53 1010.1
20260509233720 20 153 1.6 1.6 0.00 0.00 0.00 52 1010.3
20260509233217 20 129 1.6 1.6 0.00 0.00 0.00 52 1010.1
20260509232713 20 125 1.6 1.6 0.00 0.00 0.00 52 1010.1
20260509232210 20 212 6.4 6.4 0.00 0.00 0.00 51 1010.3
20260509231706 20 170 4.8 4.8 0.00 0.00 0.00 51 1010.1
20260509231204 20 204 6.4 6.4 0.00 0.00 0.00 50 1009.9
20260509230701 20 198 6.4 6.4 0.00 0.00 0.00 50 1010.0
20260509230157 20 206 3.2 4.8 0.00 0.00 0.00 51 1010.2
20260509225653 20 238 4.8 4.8 0.00 0.00 0.00 49 1010.1
20260509225149 20 214 4.8 4.8 0.00 0.00 0.00 50 1010.1
20260509224645 20 222 8.0 9.7 0.00 0.00 0.00 49 1010.1
20260509224142 20 249 9.7 11.3 0.00 0.00 0.00 50 1010.2
20260509223639 20 210 4.8 4.8 0.00 0.00 0.00 51 1010.2
20260509223136 20 213 11.3 12.9 0.00 0.00 0.00 51 1010.2
20260509222633 20 213 9.7 12.9 0.00 0.00 0.00 50 1010.2
20260509222128 20 208 4.8 6.4 0.00 0.00 0.00 51 1010.4
20260509221624 20 187 4.8 4.8 0.00 0.00 0.00 51 1010.3
20260509221120 21 115 3.2 4.8 0.00 0.00 0.00 49 1010.1
20260509220616 21 222 6.4 11.3 0.00 0.00 0.00 48 1009.9
20260509220113 21 181 4.8 6.4 0.00 0.00 0.00 50 1010.1
20260509215609 21 192 3.2 4.8 0.00 0.00 0.00 50 1010.0
20260509215105 21 212 9.7 9.7 0.00 0.00 0.00 49 1009.9
20260509214602 20 189 9.7 11.3 0.00 0.00 0.00 51 1009.9
20260509214059 20 210 12.9 14.5 0.00 0.00 0.00 50 1010.0
20260509213555 20 160 3.2 3.2 0.00 0.00 0.00 52 1010.0
20260509213052 20 248 9.7 12.9 0.00 0.00 0.00 52 1010.1
20260509212549 19 190 4.8 4.8 0.00 0.00 0.00 52 1010.0
20260509212046 19 200 3.2 6.4 0.00 0.00 0.00 53 1010.0
20260509211542 19 192 9.7 11.3 0.00 0.00 0.00 52 1010.0
20260509211039 20 194 3.2 3.2 0.00 0.00 0.00 52 1009.9
20260509210536 20 222 8.0 9.7 0.00 0.00 0.00 50 1009.9
20260509210032 20 244 9.7 11.3 0.00 0.00 0.00 50 1010.0
20260509205531 20 237 8.0 11.3 0.00 0.00 0.00 51 1009.9
20260509205027 20 221 6.4 9.7 0.00 0.00 0.00 51 1009.8
20260509204524 19 215 9.7 12.9 0.00 0.00 0.00 51 1010.0
20260509204020 19 110 3.2 3.2 0.00 0.00 0.00 52 1009.8
20260509203516 20 216 8.0 9.7 0.00 0.00 0.00 51 1009.7
20260509203015 20 228 8.0 9.7 0.00 0.00 0.00 50 1009.7
20260509202509 20 206 14.5 17.7 0.00 0.00 0.00 49 1009.6
20260509202005 21 243 11.3 11.3 0.00 0.00 0.00 46 1009.4
20260509201500 21 237 9.7 14.5 0.00 0.00 0.00 47 1009.5
20260509200957 21 197 1.6 3.2 0.00 0.00 0.00 45 1009.6
20260509200452 21 250 6.4 9.7 0.00 0.00 0.00 47 1009.5
20260509195948 21 234 12.9 16.1 0.00 0.00 0.00 48 1009.6
20260509195445 21 234 14.5 14.5 0.00 0.00 0.00 46 1009.5
20260509194944 20 211 9.7 17.7 0.00 0.00 0.00 50 1009.5
20260509194440 20 233 8.0 9.7 0.00 0.00 0.00 49 1009.6
20260509193937 20 223 6.4 9.7 0.00 0.00 0.00 48 1009.6
20260509193436 20 224 16.1 20.9 0.00 0.00 0.00 47 1009.8
20260509192932 20 211 4.8 6.4 0.00 0.00 0.00 52 1010.0
20260509192429 20 222 4.8 4.8 0.00 0.00 0.00 48 1009.9
20260509191924 20 211 9.7 12.9 0.00 0.00 0.00 48 1010.1
20260509191420 20 234 14.5 16.1 0.00 0.00 0.00 49 1010.1
20260509190916 21 215 19.3 25.7 0.00 0.00 0.00 45 1009.8
20260509190413 20 220 8.0 9.7 0.00 0.00 0.00 48 1010.2
20260509185912 20 238 6.4 9.7 0.00 0.00 0.00 51 1010.3
20260509185408 20 227 9.7 11.3 0.00 0.00 0.00 54 1010.1
20260509184905 20 182 4.8 6.4 0.00 0.00 0.00 50 1010.4
20260509184402 20 213 11.3 12.9 0.00 0.00 0.00 53 1010.4
20260509183859 18 244 9.7 12.9 0.00 0.00 0.00 55 1010.6
20260509183353 18 236 6.4 6.4 0.00 0.00 0.00 57 1010.7
20260509182849 18 224 4.8 6.4 0.00 0.00 0.00 56 1010.7
20260509182347 18 232 9.7 11.3 0.00 0.00 0.00 55 1010.8
20260509181844 18 186 3.2 4.8 0.00 0.00 0.00 54 1010.9
20260509181341 18 207 4.8 9.7 0.00 0.00 0.00 54 1010.8
20260509180838 18 247 9.7 12.9 0.00 0.00 0.00 54 1010.8
20260509180334 18 229 9.7 12.9 0.00 0.00 0.00 53 1010.7
20260509175831 18 225 8.0 9.7 0.00 0.00 0.00 53 1011.0
20260509175327 18 161 3.2 3.2 0.00 0.00 0.00 51 1011.0
20260509174823 18 224 6.4 6.4 0.00 0.00 0.00 55 1010.9
20260509174319 18 218 4.8 4.8 0.00 0.00 0.00 54 1011.1
20260509173815 18 141 1.6 3.2 0.00 0.00 0.00 54 1010.8
20260509173311 19 276 8.0 9.7 0.00 0.00 0.00 53 1011.0
20260509172807 19 248 6.4 6.4 0.00 0.00 0.00 51 1011.2
20260509172306 18 286 14.5 17.7 0.00 0.00 0.00 55 1011.1
20260509171801 19 245 12.9 16.1 0.00 0.00 0.00 53 1011.1
20260509171256 18 230 6.4 6.4 0.00 0.00 0.00 57 1011.3
20260509170753 17 227 11.3 12.9 0.00 0.00 0.00 60 1011.3
20260509170249 17 264 8.0 9.7 0.00 0.00 0.00 55 1011.5
20260509165748 18 258 14.5 20.9 0.00 0.00 0.00 56 1011.5
20260509165243 18 214 11.3 16.1 0.00 0.00 0.00 57 1011.6
20260509164739 18 258 8.0 9.7 0.00 0.00 0.00 55 1011.6
20260509164235 18 210 8.0 9.7 0.00 0.00 0.00 55 1011.5
20260509163732 17 160 4.8 6.4 0.00 0.00 0.00 57 1011.4
20260509163228 17 162 4.8 6.4 0.00 0.00 0.00 59 1011.4
20260509162727 17 202 11.3 12.9 0.00 0.00 0.00 57 1011.1
20260509162221 17 181 3.2 9.7 0.00 0.00 0.00 59 1011.5
20260509161717 17 216 4.8 9.7 0.00 0.00 0.00 58 1011.5
20260509161215 16 206 9.7 11.3 0.00 0.00 0.00 61 1011.6
20260509160715 16 223 14.5 16.1 0.00 0.00 0.00 60 1011.8
20260509160211 16 187 12.9 14.5 0.00 0.00 0.00 62 1011.8
20260509155706 16 232 12.9 14.5 0.00 0.00 0.00 61 1011.6
20260509155203 16 231 9.7 11.3 0.00 0.00 0.00 62 1011.5
20260509154659 16 230 11.3 12.9 0.00 0.00 0.00 62 1011.5
20260509154156 16 198 6.4 6.4 0.00 0.00 0.00 61 1011.4
20260509153653 16 226 6.4 6.4 0.00 0.00 0.00 63 1011.6
20260509153150 15 183 12.9 14.5 0.00 0.00 0.00 63 1011.6
20260509152645 15 261 9.7 17.7 0.00 0.00 0.00 63 1011.7
20260509152143 16 224 14.5 14.5 0.00 0.00 0.00 61 1011.8
20260509151639 15 231 9.7 11.3 0.00 0.00 0.00 64 1011.8
20260509151137 15 225 8.0 9.7 0.00 0.00 0.00 63 1011.8
20260509150635 15 224 16.1 17.7 0.00 0.00 0.00 63 1011.5
20260509150133 15 224 6.4 9.7 0.00 0.00 0.00 64 1011.7
20260509145629 15 192 6.4 9.7 0.00 0.00 0.00 65 1011.8
20260509145124 16 125 4.8 6.4 0.00 0.00 0.00 63 1011.8
20260509144621 16 226 14.5 24.1 0.00 0.00 0.00 62 1011.9
20260509144118 15 236 11.3 16.1 0.00 0.00 0.00 65 1011.8
20260509143615 15 226 11.3 12.9 0.00 0.00 0.00 64 1011.7
20260509143113 15 228 12.9 14.5 0.00 0.00 0.00 63 1011.7
20260509142608 15 255 12.9 16.1 0.00 0.00 0.00 62 1011.6
20260509142104 15 210 14.5 17.7 0.00 0.00 0.00 62 1011.5
20260509141600 15 118 3.2 3.2 0.00 0.00 0.00 62 1011.5
20260509141057 15 218 9.7 14.5 0.00 0.00 0.00 64 1011.5
20260509140554 15 244 6.4 11.3 0.00 0.00 0.00 63 1011.5
20260509140052 15 252 11.3 14.5 0.00 0.00 0.00 64 1011.5
20260509135549 15 231 11.3 11.3 0.00 0.00 0.00 65 1011.9
20260509135047 14 215 8.0 9.7 0.00 0.00 0.00 65 1011.7
20260509134543 14 265 9.7 12.9 0.00 0.00 0.00 65 1012.0
20260509134041 14 222 4.8 4.8 0.00 0.00 0.00 66 1012.0
20260509133538 14 218 4.8 4.8 0.00 0.00 0.00 65 1012.2
20260509133036 14 206 9.7 11.3 0.00 0.00 0.00 65 1012.1
20260509132534 13 206 4.8 4.8 0.00 0.00 0.00 65 1012.1
20260509132032 13 249 6.4 6.4 0.00 0.00 0.00 65 1012.1
20260509131527 13 238 4.8 4.8 0.00 0.00 0.00 66 1012.2
20260509131024 13 236 4.8 4.8 0.00 0.00 0.00 64 1012.3
20260509130519 13 249 4.8 4.8 0.00 0.00 0.00 65 1012.2
20260509130017 13 214 6.4 6.4 0.00 0.00 0.00 65 1012.3
20260509125513 13 228 4.8 4.8 0.00 0.00 0.00 65 1012.5
20260509125009 13 215 4.8 6.4 0.00 0.00 0.00 66 1012.6
20260509124506 12 218 6.4 9.7 0.00 0.00 0.00 66 1012.6
20260509124004 12 228 8.0 9.7 0.00 0.00 0.00 65 1012.6
20260509123502 12 205 11.3 17.7 0.00 0.00 0.00 65 1012.8
20260509122957 12 179 9.7 12.9 0.00 0.00 0.00 65 1012.7
20260509122454 12 214 4.8 4.8 0.00 0.00 0.00 66 1012.8
20260509121951 12 237 8.0 9.7 0.00 0.00 0.00 65 1012.6
20260509121447 12 148 8.0 14.5 0.00 0.00 0.00 64 1012.8
20260509120945 12 222 9.7 14.5 0.00 0.00 0.00 65 1012.6
20260509120443 12 192 4.8 4.8 0.00 0.00 0.00 65 1012.8
20260509115941 12 223 9.7 11.3 0.00 0.00 0.00 64 1012.7
20260509115438 12 200 4.8 4.8 0.00 0.00 0.00 65 1012.7
20260509114935 12 233 4.8 6.4 0.00 0.00 0.00 64 1012.7
20260509114434 12 187 6.4 6.4 0.00 0.00 0.00 64 1012.6
20260509113933 12 220 3.2 3.2 0.00 0.00 0.00 64 1012.7
20260509113430 12 183 4.8 4.8 0.00 0.00 0.00 65 1012.6
20260509112927 12 207 6.4 6.4 0.00 0.00 0.00 65 1012.6
20260509112424 12 172 4.8 4.8 0.00 0.00 0.00 66 1012.6
20260509111921 12 218 3.2 4.8 0.00 0.00 0.00 66 1012.5
20260509111418 12 208 3.2 3.2 0.00 0.00 0.00 66 1012.3
20260509110916 11 195 1.6 3.2 0.00 0.00 0.00 68 1012.3
20260509110411 11 208 3.2 3.2 0.00 0.00 0.00 69 1012.6
20260509105910 11 127 0.0 0.0 0.00 0.00 0.00 68 1012.3
20260509105408 11 168 1.6 1.6 0.00 0.00 0.00 66 1012.2
20260509104904 12 234 4.8 4.8 0.00 0.00 0.00 64 1012.2
20260509104401 12 202 3.2 3.2 0.00 0.00 0.00 64 1012.0
20260509103859 12 223 9.7 11.3 0.00 0.00 0.00 64 1012.3
20260509103355 12 129 0.0 1.6 0.00 0.00 0.00 64 1011.9
20260509102854 11 119 0.0 1.6 0.00 0.00 0.00 65 1012.1
20260509102351 11 203 4.8 4.8 0.00 0.00 0.00 65 1012.1
20260509101847 11 149 3.2 3.2 0.00 0.00 0.00 66 1012.2
20260509101343 11 127 0.0 1.6 0.00 0.00 0.00 66 1012.3
20260509100841 10 120 0.0 1.6 0.00 0.00 0.00 67 1012.2
20260509100338 11 203 3.2 3.2 0.00 0.00 0.00 65 1012.1
20260509095835 11 193 1.6 3.2 0.00 0.00 0.00 65 1012.3
20260509095332 10 136 1.6 3.2 0.00 0.00 0.00 68 1012.1
20260509094829 10 128 0.0 1.6 0.00 0.00 0.00 70 1012.3
20260509094326 10 160 1.6 1.6 0.00 0.00 0.00 69 1012.5